Home   Weather   Taiohae   Past weeks

Flag for French Polynesia Past Weather in Taiohae, Marquesas Islands, French Polynesia — Yesterday and Last 2 Weeks

Now
77 °F

Warm.


Feels Like: 79 °F
Forecast: 78 / 84 °F
Wind: No wind

Location: Atuona

Current Time: Feb 22, 2017 at 1:28:51 am

Latest Report: Feb 22, 2017 at 12:30 am


Visibility: N/A

Pressure: 29.91 "Hg

Humidity: 94%

Dew Point: 76 °F

Location of TaiohaeLocation

Past Weather in Taiohae — Graph

°F

Taiohae Temperature Yesterday

Maximum temperature yesterday: 93 °F (at 11:30 am)
Minimum temperature yesterday: 76 °F (at 4:30 am)
Average temperature yesterday: 82 °F

High & Low Weather Summary for the Past Weeks

 TemperatureHumidityPressure
High93 °F (Feb 21, 11:30 am)95% (Feb 8, 3:30 am)29.97 "Hg (Feb 8, 3:30 am)
Low73 °F (Feb 14, 3:30 am)44% (Feb 13, 2:30 pm)29.75 "Hg (Feb 7, 3:30 pm)
Average81 °F79%29.87 "Hg
* Reported Feb 6 11:30 pm — Feb 21 11:30 pm, Taiohae, Weather by CustomWeather, © 2017

Note: Actual official high and low records may vary slightly from our data, if they occured in-between our weather recording intervals... More about our weather records

Advertising

Taiohae Weather History for the Previous 24 Hours

Scroll right to see more
 ConditionsComfort  
Time TempWeatherWind HumidityBarometerVisibility
11:30 pm
Tue, Feb 21
78 °FWarm.3 mph94%29.93 "HgN/A
10:30 pm79 °FWarm.No wind90%29.95 "HgN/A
9:30 pm79 °FWarm.No wind88%29.95 "HgN/A
8:30 pm80 °FWarm.1 mph87%29.94 "HgN/A
7:30 pm80 °FWarm.2 mph87%29.93 "HgN/A
6:30 pm82 °FWarm.2 mph83%29.90 "HgN/A
5:30 pm84 °FWarm.2 mph73%29.88 "HgN/A
4:30 pm87 °FScattered clouds.5 mph66%29.85 "Hg9 mi
3:30 pm89 °FScattered clouds.3 mph64%29.85 "Hg6 mi
2:30 pm90 °FScattered clouds.5 mph63%29.85 "Hg6 mi
1:30 pm89 °FScattered clouds.5 mph65%29.87 "Hg6 mi
12:30 pm90 °FHot.10 mph65%29.90 "HgN/A
11:30 am93 °FScattered clouds.7 mph58%29.92 "Hg25 mi
9:30 am87 °FWarm.3 mph68%29.96 "HgN/A
8:30 am87 °FWarm.2 mph70%29.96 "HgN/A
7:30 am82 °FWarm.3 mph80%29.95 "HgN/A
6:30 am78 °FPassing clouds.1 mph87%29.93 "Hg31 mi
5:30 am76 °FMild.No wind88%29.91 "HgN/A
4:30 am76 °FMild.1 mph87%29.89 "HgN/A
3:30 am76 °FMild.2 mph89%29.88 "HgN/A
2:30 am77 °FMild.2 mph87%29.89 "HgN/A
1:30 am77 °FMild.No wind87%29.89 "HgN/A
Weather by CustomWeather, © 2017

See weather overviewHow to use our weather pages